Location: Middlebury
(44.0153°N, 73.1678°W)
Time: 19:27:41
(UTC-04:00)

DIWATA 2B (PO-101) - Pass Details

Date: 18 June 2024
Orbit: 575 x 586 km, 98.1° (Epoch: 23 July)

Event Time Altitude Azimuth Distance (km) Brightness Sun altitude
Rises 04:21:50 0° 166° (SSE) 2,773 ? -7.5°
Reaches altitude 10° 04:23:58 10° 167° (SSE) 1,879 ? -7.2°
Maximum altitude 04:28:03 87° 258° (WSW) 583 ? -6.7°
Drops below altitude 10° 04:32:10 10° 346° (NNW) 1,897 ? -6.1°
Sets 04:34:20 0° 347° (NNW) 2,802 ? -5.8°
